SUPERVIEW NEO-2 02

导读 | 星芒AI

SUPERVIEW NEO-2 02 是高分辨率商业遥感卫星,由中国航天科技集团研制,主要用于提供高精度地球观测数据。该卫星具备高分辨率、多光谱成像能力,广泛应用于测绘、农业、环境监测等领域。其发射进一步增强了中国在商业遥感市场的竞争力,为用户提供更高效、精准的遥感服务。

基本信息
目录编号:
53130
目录名称:
SUPERVIEW NEO-2 02
国际标识:
2022-082C
轨道中心:
EARTH
卫星名称:
SUPERVIEW NEO-2 02
卫星全名:
--
卫星状态:
在轨 (已飞行1202 天)
发射日期:
2022-07-15 UTC
国别 :
中国 (CN)
星等 :
--
轨道信息
数据来源 国际轨道数据
星历时间: 2025-10-29T00:32:36+0800
15小时前
查看轨道信息
半长轴: 6870.416km
偏心率: 0.0001745
轨道倾角: 97.394°
近地点辐角 89.212°
升交点赤经 309.771°
平近点角 270.932°
近地点: 491.082km
远地点: 493.48km
周期: 94.457分钟
每日圈数: 15.24503
详细信息
使用方式:
暂无
2D轨道图
3D轨道图
轨道高度分析图
轨道倾角分析图
轨道综合分析图
查看轨道综合分析图